[[{"header":{"parameterUnit":"m.s-1","parameterCategory":2,"la1":30.2991,"la2":30.254,"lo1":-89.0895,"lo2":-89.0444,"dy":0.0017,"dx":0.0017,"nx":28,"ny":28,"refTime":"2025-08-03T09:00:00:Z","depth":"0","parameterNumber":2,"parameterNumberName":"U-component_of_CURRENTS"},"data":[0,0,0,0,0,0,0,0,0,0,0,0,0,0,0,0,0,0,0,0,0,0,0,0,0,0,0,0,0,0,0,0,0,0,0,0,0,0,0,0,0,0,0,0,0,0,0,0,0,0,0,0,0,0,0,0,0,0,0.2536,0.2536,0,0.2451,0.2449,0.2447,0.2259,0.2256,0.2253,0.225,0.2282,0.2285,0.2289,0,0,0,0,0,0,0,0,0,0,0,0,0,0.2538,0.2538,0.2536,0.2536,0.2536,0.2451,0.2449,0.2447,0.2259,0.2256,0.2252,0.2249,0.2281,0.2285,0.2289,0,0,0,0,0,0,0,0,0,0,0,0,0,0.2493,0.2538,0.2536,0.2441,0.2432,0.2452,0.2449,0.2446,0.226,0.2255,0.2251,0.2247,0.228,0.2285,0.229,0.2407,0,0,0.2306,0.2308,0,0,0,0,0,0,0,0,0.2496,0.2492,0.2455,0.2447,0.2438,0.2371,0.2462,0.2443,0.2261,0.2313,0.225,0.2245,0.2333,0.2334,0.2309,0.2408,0.241,0.2306,0.2309,0.2312,0.2313,0,0,0,0,0,0,0,0.2499,0.2495,0.2491,0.2455,0.2445,0.2403,0.2391,0.2456,0.2342,0.2308,0.2297,0.2307,0.2327,0.2305,0.2309,0.241,0.2306,0.2311,0.2314,0.2316,0.2659,0.2665,0,0,0,0,0,0,0.2537,0.2498,0.2494,0.249,0.247,0.2408,0.2393,0.2387,0.2338,0.2329,0.2311,0.2299,0.2298,0.2303,0.231,0.2468,0.2312,0.2316,0.2319,0.2653,0.266,0.2667,0,0,0,0,0,0,0.2537,0.2537,0.2498,0.2501,0.2495,0.2413,0.2408,0.2388,0.2358,0.2341,0.233,0.23,0.2295,0.2303,0.238,0.2467,0.2319,0.2324,0.2646,0.2655,0.2664,0.2773,0,0,0,0,0,0,0.2538,0.2537,0.2556,0.2504,0.2496,0.256,0.2413,0.239,0.2376,0.2359,0.2331,0.2327,0.2292,0.2373,0.2385,0.2472,0.2328,0.2638,0.265,0.2661,0.2762,0.2784,0.2804,0,0,0,0,0,0.2538,0.2605,0.2557,0.2557,0.252,0.2566,0.256,0.2478,0.2381,0.242,0.2374,0.2328,0.2453,0.2382,0.2395,0.2485,0.2633,0.2647,0.266,0.2752,0.278,0.2803,0,0,0,0,0,0,0.2609,0.2591,0.2537,0.2589,0.2595,0.2539,0.2573,0.2501,0.2487,0.2459,0.2395,0.2396,0.2498,0.2502,0.2423,0.2627,0.2543,0.256,0.2609,0.2635,0.2656,0.2653,0.2332,0,0,0,0,0,0.264,0.2673,0.2654,0.2692,0.2708,0.2635,0.2639,0.2587,0.2567,0.2548,0.2522,0.2525,0.2573,0.2604,0.2647,0.2766,0.2752,0.2843,0.2864,0.2881,0.2896,0.2983,0.3011,0.2711,0.2711,0.2711,0,0,0.2669,0.2671,0.2681,0.2711,0.2693,0.274,0.2624,0.2659,0.2677,0.2572,0.2601,0.2603,0.2623,0.273,0.2781,0.2737,0.2956,0.2898,0.2912,0.2917,0.3,0.3028,0.3054,0.272,0.2719,0.2717,0,0,0.2761,0.2759,0.2814,0.2844,0.2864,0.2841,0.2861,0.2829,0.2802,0.2856,0.2778,0.2838,0.2894,0.2924,0.2945,0.3135,0.3063,0.3154,0.3256,0.3342,0.3365,0.3386,0.3363,0.3381,0.3165,0.3166,0.3166,0,0.2779,0.2842,0.2847,0.2917,0.2935,0.2893,0.2946,0.2957,0.2943,0.2934,0.2897,0.2962,0.2996,0.3099,0.3161,0.3182,0.3166,0.3138,0.3362,0.3383,0.3402,0.3375,0.3393,0.3173,0.3172,0.3171,0.3171,0,0.2916,0.2958,0.3013,0.3062,0.3103,0.3163,0.3174,0.3198,0.3154,0.3128,0.3204,0.3238,0.3258,0.3313,0.3294,0.3455,0.3373,0.3367,0.3276,0.3438,0.3399,0.3416,0.3183,0.318,0.3178,0.3176,0,0,0.2937,0.3066,0.3077,0.3097,0.3173,0.3206,0.3286,0.332,0.3318,0.3363,0.3375,0.3506,0.3467,0.3497,0.3495,0.3595,0.3725,0.3545,0.3546,0.3482,0.3825,0.3555,0.3545,0.3738,0.3743,0.3747,0.3724,0,0.3009,0.3145,0.3192,0.3286,0.3344,0.3345,0.3405,0.3434,0.3438,0.3464,0.352,0.3552,0.3555,0.3554,0.3669,0.3697,0.3782,0.3726,0.3714,0.3712,0.3421,0.3563,0.3379,0.3326,0.374,0.3742,0.3744,0,0.3117,0.3181,0.3289,0.3345,0.3366,0.3416,0.3445,0.3494,0.3547,0.3543,0.3593,0.3594,0.3722,0.3716,0.3861,0.3807,0.3844,0.3878,0.3877,0.36,0.3476,0.3248,0.3339,0.3243,0.3769,0.3767,0.3765,0,0.3121,0.3238,0.3307,0.3341,0.3421,0.3435,0.3461,0.3503,0.3514,0.358,0.3576,0.3692,0.3714,0.3837,0.3856,0.3878,0.3974,0.4008,0.3797,0.3773,0.3604,0.3556,0.3571,0.4158,0.4158,0.4158,0.4158,0,0.3186,0.3233,0.3307,0.3347,0.3384,0.3432,0.3457,0.3488,0.3526,0.354,0.3602,0.3616,0.3755,0.3786,0.3866,0.3815,0.397,0.3827,0.3777,0.363,0.3587,0.3479,0.3475,0.4157,0.4157,0.4158,0.4158,0,0.32,0.3256,0.3323,0.3388,0.3396,0.3419,0.3439,0.3457,0.348,0.3505,0.352,0.3567,0.3562,0.3614,0.3749,0.3749,0.3654,0.3734,0.3473,0.3393,0.3096,0.3104,0.2948,0.2891,0.3535,0.3528,0.3523,0,0.3241,0.3284,0.3337,0.3355,0.3382,0.3405,0.3418,0.3437,0.3445,0.3457,0.3468,0.3436,0.3383,0.3368,0.3357,0.3347,0.3362,0.318,0.3235,0.3051,0.3031,0.2961,0.2926,0.3053,0.3045,0.3037,0.3032,0,0.3311,0.3315,0.3362,0.3378,0.3391,0.3385,0.3397,0.3378,0.339,0.3358,0.329,0.3237,0.3136,0.2975,0.2887,0.2915,0.2983,0.3024,0.2977,0.2762,0.2559,0.2484,0.3026,0.2967,0.2974,0.2978,0.2982,0.2985,0.3366,0.338,0.342,0.3409,0.3406,0.335,0.3274,0.3265,0.3193,0.3066,0.3102,0.2903,0.2731,0.2547,0.2534,0.2339,0.2482,0.2324,0.2377,0.2342,0.2206,0.2514,0.2302,0.2304,0.2306,0.2308,0.231,0,0.3428,0.3427,0.3447,0.3401,0.3327,0.3324,0.3241,0.3101,0.2933,0.2852,0.2707,0.2381,0.2159,0.2046,0.1846,0.1759,0.179,0.1712,0.1684,0.1715,0.2115,0.2011,0.1551,0.1551,0.1552,0.1552,0.1552,0.1552,0.349,0.3482,0.3443,0.3321,0.325,0.3042,0.2932,0.2742,0.2607,0.2266,0.202,0.1913,0.1758,0.153,0.136,0.1353,0.1345,0.1168,0.1285,0.1658,0.1723,0.1786,0.1688,0.1169,0.1169,0.0805,0.0802,0.08]},{"header":{"parameterUnit":"m.s-1","parameterCategory":2,"la1":30.2991,"la2":30.254,"lo1":-89.0895,"lo2":-89.0444,"dy":0.0017,"dx":0.0017,"nx":28,"ny":28,"refTime":"2025-08-03T09:00:00:Z","depth":"0","parameterNumber":3,"parameterNumberName":"V-component_of_CURRENTS"},"data":[0,0,0,0,0,0,0,0,0,0,0,0,0,0,0,0,0,0,0,0,0,0,0,0,0,0,0,0,0,0,0,0,0,0,0,0,0,0,0,0,0,0,0,0,0,0,0,0,0,0,0,0,0,0,0,0,0,0,0.0364,0.0365,0,0.0407,0.0407,0.0407,0.0384,0.0384,0.0383,0.0382,0.0382,0.0383,0.0383,0,0,0,0,0,0,0,0,0,0,0,0,0,0.0242,0.0244,0.0364,0.0365,0.0366,0.0407,0.0407,0.0407,0.0385,0.0384,0.0383,0.0382,0.0382,0.0383,0.0383,0,0,0,0,0,0,0,0,0,0,0,0,0,0.0287,0.0245,0.0364,0.0363,0.0364,0.0407,0.0407,0.0407,0.0385,0.0384,0.0383,0.0382,0.0382,0.0383,0.0384,0.0412,0,0,0.0387,0.0387,0,0,0,0,0,0,0,0,0.0284,0.0291,0.0362,0.0363,0.0364,0.0393,0.0364,0.0408,0.0385,0.0372,0.0382,0.0381,0.0386,0.0386,0.0391,0.0412,0.0412,0.0387,0.0387,0.0388,0.0388,0,0,0,0,0,0,0,0.0281,0.0289,0.0376,0.0363,0.0364,0.0354,0.0359,0.0372,0.038,0.0373,0.0372,0.0385,0.0385,0.039,0.0391,0.0412,0.0387,0.0388,0.0388,0.0389,0.0508,0.0511,0,0,0,0,0,0,0.0288,0.0286,0.0375,0.0378,0.0326,0.0357,0.0362,0.0381,0.0381,0.0381,0.0386,0.0384,0.0389,0.0389,0.039,0.0431,0.0388,0.0389,0.0389,0.0506,0.0509,0.0512,0,0,0,0,0,0,0.0285,0.0296,0.0373,0.0336,0.0345,0.0361,0.0382,0.0383,0.0384,0.0392,0.039,0.0386,0.0388,0.0389,0.0414,0.0431,0.0389,0.039,0.0503,0.0507,0.051,0.0508,0,0,0,0,0,0,0.0282,0.0295,0.0307,0.0337,0.0348,0.0402,0.0384,0.0384,0.0396,0.0393,0.0392,0.0391,0.0387,0.0413,0.0415,0.0431,0.0391,0.05,0.0505,0.0509,0.0505,0.0512,0.0517,0,0,0,0,0,0.0277,0.0304,0.0307,0.0318,0.0366,0.0403,0.0407,0.0411,0.0397,0.0405,0.0411,0.0391,0.0446,0.0415,0.0418,0.0434,0.0497,0.0503,0.0509,0.0502,0.051,0.0517,0,0,0,0,0,0,0.0257,0.0305,0.0309,0.0348,0.0374,0.0401,0.0417,0.0413,0.0424,0.042,0.0414,0.0415,0.0448,0.0454,0.042,0.0492,0.0473,0.0479,0.0468,0.0475,0.0481,0.0481,0.0392,0,0,0,0,0,0.0261,0.029,0.033,0.0359,0.0378,0.0395,0.0409,0.0411,0.0429,0.0431,0.0431,0.0449,0.0478,0.0483,0.0508,0.0536,0.0571,0.0558,0.0564,0.0568,0.0576,0.0718,0.0737,0.0531,0.0531,0.0531,0,0,0.026,0.0292,0.0306,0.0356,0.0378,0.0388,0.04,0.0428,0.0425,0.0431,0.0434,0.0467,0.0494,0.053,0.0546,0.053,0.063,0.0576,0.0579,0.0584,0.0726,0.0746,0.0764,0.0535,0.0534,0.0533,0,0,0.0252,0.0306,0.0311,0.0336,0.0374,0.0395,0.0402,0.0431,0.0439,0.0457,0.0472,0.0526,0.054,0.058,0.0597,0.066,0.0663,0.0663,0.068,0.0817,0.0835,0.0851,0.0843,0.0859,0.0659,0.0659,0.0659,0,0.0238,0.0258,0.0318,0.0323,0.0342,0.0392,0.039,0.0414,0.044,0.0474,0.0458,0.0562,0.057,0.065,0.0659,0.067,0.0706,0.0637,0.0823,0.0841,0.0858,0.0847,0.0865,0.0659,0.0659,0.0659,0.0659,0,0.0222,0.0235,0.0252,0.0272,0.0304,0.0325,0.0371,0.0407,0.043,0.0462,0.0554,0.06,0.0671,0.0682,0.0672,0.0798,0.0764,0.0817,0.0796,0.0878,0.086,0.0879,0.066,0.066,0.066,0.0659,0,0,0.0174,0.0225,0.0222,0.0238,0.0281,0.0319,0.0347,0.0413,0.0477,0.0514,0.061,0.0654,0.0717,0.0745,0.0777,0.0872,0.0974,0.0879,0.0886,0.0851,0.1184,0.1064,0.1071,0.1074,0.1079,0.1083,0.1093,0,0.0129,0.0137,0.0169,0.0184,0.0203,0.0275,0.0316,0.039,0.0469,0.0585,0.0675,0.0775,0.073,0.0797,0.0882,0.0996,0.1037,0.096,0.1127,0.1129,0.1002,0.1096,0.1008,0.1005,0.1111,0.1114,0.1116,0,0.0078,0.0103,0.0105,0.0184,0.0204,0.0224,0.0362,0.0405,0.0573,0.0646,0.0768,0.0857,0.0987,0.0968,0.1141,0.1099,0.1119,0.1175,0.118,0.1091,0.1049,0.0961,0.1035,0.0997,0.1145,0.1142,0.114,0,0.0035,0.0059,0.0074,0.0092,0.0182,0.022,0.0283,0.0428,0.053,0.0714,0.0838,0.0981,0.1111,0.1198,0.1246,0.1233,0.143,0.1441,0.1319,0.1305,0.1273,0.1249,0.1324,0.155,0.155,0.155,0.155,0,-0.0013,0.0002,0.0064,0.0081,0.0159,0.0212,0.0337,0.0431,0.061,0.0781,0.0879,0.1051,0.1197,0.1313,0.1312,0.1351,0.1475,0.1329,0.1339,0.1257,0.1233,0.1232,0.1217,0.1551,0.1551,0.1551,0.155,0,-0.004,-0.0027,0.0023,0.011,0.0143,0.0214,0.0379,0.0502,0.0634,0.0873,0.0946,0.1164,0.1297,0.1343,0.15,0.1446,0.1447,0.1445,0.1249,0.1236,0.108,0.1066,0.1137,0.115,0.1343,0.1341,0.1339,0,-0.0037,-0.0029,0.0066,0.0127,0.0171,0.0277,0.0382,0.0514,0.0663,0.0945,0.1086,0.126,0.1395,0.1486,0.1427,0.1366,0.1363,0.1234,0.1206,0.1065,0.1062,0.1054,0.1063,0.1124,0.112,0.1117,0.1115,0,0.0005,0.0026,0.0092,0.0198,0.0295,0.0423,0.0569,0.0678,0.0873,0.105,0.1292,0.1403,0.1446,0.1392,0.1267,0.1219,0.1187,0.1169,0.1158,0.1001,0.0877,0.0894,0.1016,0.1089,0.1092,0.1094,0.1095,0.1096,0.0073,0.0133,0.0212,0.0316,0.043,0.0577,0.0676,0.0834,0.1035,0.1279,0.1379,0.1504,0.1378,0.1206,0.1122,0.09,0.099,0.0855,0.0869,0.0887,0.0864,0.0837,0.085,0.0851,0.0852,0.0853,0.0854,0,0.0179,0.0235,0.0335,0.0468,0.0595,0.0633,0.0825,0.0914,0.1111,0.1293,0.1436,0.1381,0.121,0.1039,0.074,0.0634,0.0644,0.0606,0.0621,0.0666,0.0759,0.0712,0.0536,0.0536,0.0536,0.0536,0.0536,0.0536,0.0249,0.0352,0.0386,0.0589,0.0681,0.083,0.0923,0.1034,0.1152,0.1278,0.1303,0.1322,0.1183,0.0763,0.0518,0.0476,0.05,0.0414,0.0511,0.0576,0.0602,0.0627,0.0583,0.0383,0.0383,0.0407,0.0407,0.0407]}],[{"header":{"parameterUnit":"m.s-1","parameterCategory":2,"la1":30.2991,"la2":30.254,"lo1":-89.0895,"lo2":-89.0444,"dy":0.0017,"dx":0.0017,"nx":28,"ny":28,"refTime":"2025-08-03T09:00:00:Z","depth":"2","parameterNumber":2,"parameterNumberName":"U-component_of_CURRENTS"},"data":[0,0,0,0,0,0,0,0,0,0,0,0,0,0,0,0,0,0,0,0,0,0,0,0,0,0,0,0,0,0,0,0,0,0,0,0,0,0,0,0,0,0,0,0,0,0,0,0,0,0,0,0,0,0,0,0,0,0,0.1332,0.1333,0,0.1382,0.1382,0.1382,0.1307,0.1305,0.1303,0.1301,0.1416,0.1421,0.1426,0,0,0,0,0,0,0,0,0,0,0,0,0,0.1342,0.134,0.1331,0.1333,0.1334,0.1382,0.1382,0.1382,0.1307,0.1304,0.1302,0.13,0.1415,0.142,0.1426,0,0,0,0,0,0,0,0,0,0,0,0,0,0.1353,0.134,0.1331,0.1307,0.1306,0.1382,0.1382,0.1382,0.1307,0.1304,0.1301,0.1298,0.1413,0.142,0.1427,0.1535,0,0,0.145,0.1453,0,0,0,0,0,0,0,0,0.1352,0.1351,0.1309,0.1309,0.1308,0.1341,0.1429,0.1439,0.1308,0.13,0.1301,0.1297,0.1404,0.1412,0.1418,0.154,0.1545,0.1451,0.1455,0.1458,0.1461,0,0,0,0,0,0,0,0.1351,0.135,0.1345,0.1311,0.131,0.1354,0.1349,0.143,0.1364,0.13,0.1297,0.1314,0.1402,0.141,0.142,0.1547,0.145,0.1457,0.1462,0.1465,0.1717,0.1719,0,0,0,0,0,0,0.1352,0.1348,0.1343,0.1347,0.133,0.1356,0.1351,0.1328,0.1362,0.1366,0.1317,0.131,0.1399,0.1411,0.1424,0.1508,0.1458,0.1465,0.147,0.1715,0.1717,0.172,0,0,0,0,0,0,0.1352,0.135,0.1341,0.1357,0.1359,0.1358,0.1334,0.1331,0.1351,0.1375,0.1377,0.1342,0.1397,0.1414,0.1483,0.1513,0.1469,0.1476,0.1712,0.1715,0.1718,0.1706,0,0,0,0,0,0,0.1351,0.1348,0.1371,0.1355,0.1359,0.1389,0.1337,0.1334,0.1369,0.1361,0.1399,0.1404,0.1396,0.1472,0.149,0.1523,0.1481,0.1709,0.1713,0.1717,0.1703,0.1708,0.1712,0,0,0,0,0,0.1351,0.1341,0.137,0.1373,0.1374,0.1392,0.1397,0.1383,0.1374,0.1389,0.1401,0.1404,0.1511,0.148,0.1501,0.1536,0.1707,0.1712,0.1717,0.1701,0.1707,0.1712,0,0,0,0,0,0,0.1334,0.1334,0.1363,0.1352,0.1393,0.1381,0.1397,0.1413,0.1437,0.1416,0.1442,0.1451,0.152,0.1549,0.1514,0.1623,0.1609,0.1619,0.159,0.1596,0.16,0.1632,0.1488,0,0,0,0,0,0.1358,0.1351,0.1383,0.138,0.14,0.1423,0.1444,0.1428,0.1439,0.1444,0.149,0.1525,0.1563,0.1591,0.1634,0.1716,0.1752,0.1752,0.1757,0.176,0.1802,0.1917,0.1936,0.1736,0.1736,0.1736,0,0,0.1354,0.1354,0.1356,0.1383,0.1401,0.1406,0.1422,0.1427,0.1431,0.1462,0.1504,0.1557,0.1591,0.1644,0.1681,0.1669,0.1816,0.1766,0.1768,0.181,0.1925,0.1944,0.1962,0.1739,0.1739,0.1738,0,0,0.1314,0.1343,0.1333,0.136,0.1395,0.1405,0.1421,0.1451,0.1468,0.1512,0.1538,0.1626,0.1675,0.1728,0.1747,0.1829,0.184,0.1833,0.1881,0.199,0.2008,0.2024,0.1997,0.2012,0.183,0.183,0.183,0,0.133,0.131,0.1342,0.1334,0.1367,0.1405,0.1414,0.1428,0.1483,0.1545,0.1505,0.1672,0.1709,0.1819,0.1825,0.1841,0.1861,0.1843,0.1995,0.2013,0.203,0.2,0.2016,0.183,0.183,0.183,0.183,0,0.1277,0.1287,0.1276,0.1285,0.1321,0.1329,0.1365,0.1421,0.1452,0.1497,0.1632,0.1698,0.1813,0.1829,0.1837,0.2,0.1953,0.1986,0.1974,0.2049,0.2011,0.2028,0.183,0.183,0.183,0.183,0,0,0.1297,0.1253,0.1269,0.1289,0.1307,0.1333,0.1352,0.1443,0.1508,0.1566,0.1683,0.1774,0.1876,0.1915,0.1987,0.2082,0.2176,0.2086,0.2092,0.2044,0.2327,0.2061,0.2052,0.2238,0.2244,0.2248,0.2215,0,0.129,0.1255,0.1248,0.1269,0.1283,0.1331,0.1372,0.1444,0.1512,0.1632,0.174,0.1858,0.1882,0.1965,0.207,0.218,0.2238,0.2177,0.2278,0.2279,0.2025,0.2072,0.1985,0.1932,0.2231,0.2234,0.2236,0,0.1305,0.1281,0.1278,0.1312,0.1333,0.135,0.1487,0.1519,0.1659,0.1719,0.1859,0.1944,0.212,0.2116,0.2315,0.2273,0.2314,0.236,0.236,0.2149,0.2049,0.193,0.1951,0.2265,0.2262,0.226,0.2258,0,0.1369,0.1345,0.1353,0.1356,0.1371,0.1425,0.1464,0.1582,0.1656,0.1813,0.1888,0.207,0.2173,0.2296,0.236,0.2369,0.2517,0.2533,0.2312,0.2288,0.2256,0.2219,0.2678,0.2678,0.2678,0.2678,0.2678,0,0.1402,0.1429,0.1387,0.1398,0.1472,0.1474,0.1589,0.1656,0.1765,0.1874,0.1972,0.2095,0.224,0.2322,0.2381,0.2354,0.2528,0.2329,0.2294,0.2229,0.2193,0.2545,0.253,0.2677,0.2677,0.2677,0.2678,0,0.1486,0.144,0.1474,0.1484,0.1502,0.1571,0.1641,0.1722,0.1806,0.1946,0.2001,0.2139,0.2209,0.2254,0.2403,0.2338,0.2368,0.2313,0.2133,0.2076,0.2048,0.2034,0.2074,0.2065,0.2057,0.2051,0.2046,0,0.1509,0.152,0.1555,0.1589,0.1601,0.1669,0.1725,0.1771,0.1823,0.1984,0.2048,0.2134,0.2177,0.2168,0.2108,0.2042,0.2176,0.1863,0.1876,0.204,0.2003,0.2,0.1996,0.1804,0.1797,0.1791,0.1787,0,0.159,0.1618,0.1648,0.1693,0.1748,0.1798,0.1846,0.1874,0.1933,0.1989,0.2071,0.2112,0.2058,0.1927,0.1751,0.173,0.1854,0.1732,0.2065,0.1919,0.1771,0.1737,0.1747,0.1737,0.1742,0.1746,0.1748,0.175,0.1701,0.174,0.1776,0.1847,0.1896,0.1942,0.1907,0.1913,0.194,0.1924,0.2005,0.1938,0.188,0.1546,0.1459,0.1346,0.1467,0.1422,0.145,0.1481,0.1405,0.1247,0.1094,0.1095,0.1096,0.1097,0.1098,0,0.1821,0.1883,0.1917,0.1978,0.2003,0.2004,0.1996,0.1874,0.1812,0.1805,0.1753,0.1533,0.1392,0.1331,0.1092,0.0978,0.1089,0.0924,0.1126,0.1173,0.1215,0.1137,0.075,0.0749,0.0748,0.0746,0,0,0.1907,0.1976,0.1974,0.2071,0.2075,0.1983,0.1922,0.1746,0.164,0.1483,0.1378,0.1371,0.1344,0.1074,0.0979,0.0848,0.1028,0.0807,0.1094,0.1388,0.1431,0.1502,0.1429,0,0,0,0,0]},{"header":{"parameterUnit":"m.s-1","parameterCategory":2,"la1":30.2991,"la2":30.254,"lo1":-89.0895,"lo2":-89.0444,"dy":0.0017,"dx":0.0017,"nx":28,"ny":28,"refTime":"2025-08-03T09:00:00:Z","depth":"2","parameterNumber":3,"parameterNumberName":"V-component_of_CURRENTS"},"data":[0,0,0,0,0,0,0,0,0,0,0,0,0,0,0,0,0,0,0,0,0,0,0,0,0,0,0,0,0,0,0,0,0,0,0,0,0,0,0,0,0,0,0,0,0,0,0,0,0,0,0,0,0,0,0,0,0,0,0.0076,0.0077,0,0.0112,0.0112,0.0113,0.0122,0.0122,0.0122,0.0122,0.012,0.012,0.012,0,0,0,0,0,0,0,0,0,0,0,0,0,0.0032,0.0032,0.0076,0.0077,0.0078,0.0112,0.0112,0.0113,0.0122,0.0122,0.0122,0.0122,0.012,0.012,0.012,0,0,0,0,0,0,0,0,0,0,0,0,0,0.0056,0.0033,0.0076,0.0088,0.009,0.0112,0.0112,0.0113,0.0122,0.0122,0.0122,0.0122,0.012,0.012,0.012,0.012,0,0,0.012,0.012,0,0,0,0,0,0,0,0,0.0054,0.0057,0.0086,0.0088,0.009,0.0115,0.0096,0.0114,0.0122,0.0107,0.0122,0.0122,0.0117,0.0117,0.0121,0.0119,0.0119,0.012,0.012,0.012,0.012,0,0,0,0,0,0,0,0.0052,0.0055,0.0088,0.0087,0.0089,0.0098,0.0101,0.01,0.0109,0.0109,0.011,0.0118,0.0117,0.0121,0.0121,0.0119,0.012,0.012,0.012,0.012,0.014,0.014,0,0,0,0,0,0,0.0052,0.0054,0.0087,0.0089,0.0074,0.0099,0.0102,0.0105,0.011,0.0112,0.0118,0.0118,0.0121,0.0121,0.0121,0.0154,0.012,0.012,0.012,0.0139,0.014,0.0141,0,0,0,0,0,0,0.0051,0.0055,0.0086,0.0075,0.008,0.0099,0.0103,0.0105,0.0112,0.0118,0.0118,0.0122,0.0121,0.0121,0.0129,0.0153,0.012,0.012,0.0139,0.014,0.014,0.0199,0,0,0,0,0,0,0.0049,0.0054,0.0054,0.0074,0.008,0.0102,0.0103,0.0106,0.0118,0.0118,0.0121,0.0121,0.0121,0.013,0.0129,0.0152,0.012,0.0138,0.0139,0.014,0.0196,0.0201,0.0206,0,0,0,0,0,0.0048,0.0059,0.0054,0.0058,0.0081,0.0102,0.0106,0.0118,0.0118,0.0123,0.0129,0.0121,0.0136,0.013,0.013,0.0153,0.0137,0.0139,0.014,0.0194,0.02,0.0206,0,0,0,0,0,0,0.0048,0.0062,0.0057,0.0072,0.0084,0.0105,0.0117,0.0119,0.0127,0.0126,0.0128,0.0128,0.0144,0.0136,0.0129,0.016,0.0136,0.0137,0.0177,0.0183,0.0188,0.0268,0.012,0,0,0,0,0,0.0045,0.0052,0.0065,0.0078,0.0084,0.0096,0.0106,0.011,0.0123,0.0127,0.0133,0.0137,0.0148,0.0155,0.0156,0.0174,0.0186,0.0187,0.0192,0.0196,0.0261,0.0312,0.0329,0.0145,0.0145,0.0145,0,0,0.0055,0.0058,0.0066,0.0077,0.0087,0.0116,0.0102,0.0117,0.0151,0.0124,0.0165,0.0151,0.0154,0.0177,0.0184,0.0176,0.0236,0.0198,0.0202,0.0266,0.0316,0.0334,0.0351,0.0146,0.0146,0.0146,0,0,0.0079,0.0074,0.0089,0.01,0.0111,0.0125,0.0129,0.0146,0.0163,0.0181,0.0183,0.0203,0.0192,0.0233,0.0243,0.028,0.0257,0.0246,0.0348,0.0395,0.0412,0.0427,0.0391,0.0403,0.0255,0.0256,0.0256,0,0.0085,0.0109,0.0099,0.0118,0.0146,0.0133,0.0173,0.0188,0.0208,0.0254,0.0198,0.0262,0.024,0.0336,0.0337,0.03,0.0288,0.0322,0.0406,0.0422,0.0437,0.0396,0.0409,0.0259,0.0258,0.0258,0.0258,0,0.0131,0.0146,0.0159,0.0184,0.021,0.0236,0.0262,0.0294,0.0296,0.0326,0.0395,0.0375,0.0434,0.0402,0.0375,0.0478,0.0416,0.04,0.0399,0.046,0.041,0.0423,0.0263,0.0262,0.0261,0.026,0,0,0.0131,0.0185,0.0183,0.0217,0.0248,0.0279,0.035,0.0431,0.0516,0.0505,0.0623,0.0616,0.062,0.0636,0.0607,0.0638,0.0673,0.0564,0.0564,0.0542,0.0716,0.0561,0.0558,0.0665,0.0669,0.0673,0.0611,0,0.0165,0.0231,0.0252,0.0325,0.0363,0.0402,0.0483,0.0555,0.0603,0.0705,0.0723,0.0788,0.0704,0.0722,0.0753,0.0708,0.0721,0.0689,0.0652,0.065,0.052,0.0575,0.0573,0.0511,0.0623,0.0625,0.0626,0,0.0176,0.023,0.0312,0.0419,0.0445,0.0487,0.0642,0.071,0.0851,0.0896,0.0987,0.0999,0.1066,0.0963,0.0967,0.0942,0.0854,0.0796,0.0792,0.0663,0.0523,0.0483,0.0529,0.0646,0.0645,0.0643,0.0642,0,0.0166,0.0259,0.0337,0.0366,0.0488,0.0547,0.0616,0.0761,0.0866,0.1017,0.11,0.1188,0.1197,0.1174,0.1033,0.1011,0.0997,0.095,0.0733,0.0716,0.0724,0.0701,0.0978,0.0978,0.0978,0.0978,0.0979,0,0.0176,0.0226,0.033,0.0365,0.0486,0.0554,0.0698,0.0799,0.0969,0.1106,0.1182,0.1276,0.1249,0.1229,0.1115,0.0945,0.1058,0.0786,0.0724,0.0727,0.0707,0.085,0.0836,0.0976,0.0976,0.0977,0.0977,0,0.0134,0.02,0.029,0.0427,0.0468,0.0543,0.0718,0.085,0.0981,0.1163,0.1215,0.1339,0.1281,0.1213,0.1128,0.1002,0.0888,0.079,0.0743,0.0678,0.055,0.0539,0.0583,0.0578,0.0573,0.057,0.0567,0,0.0129,0.0164,0.031,0.038,0.0431,0.0551,0.0663,0.0829,0.098,0.118,0.1283,0.1291,0.1292,0.1104,0.0913,0.071,0.074,0.056,0.0541,0.0591,0.0526,0.0522,0.0518,0.0539,0.0536,0.0534,0.0532,0,0.0123,0.0159,0.0254,0.0391,0.0495,0.0647,0.0801,0.0912,0.1113,0.1236,0.135,0.1348,0.1162,0.0965,0.0685,0.0556,0.0604,0.0493,0.0637,0.0614,0.0539,0.0477,0.0478,0.0509,0.0512,0.0513,0.0514,0.0515,0.0116,0.0189,0.0305,0.0446,0.057,0.0736,0.0834,0.099,0.116,0.1307,0.1316,0.1268,0.1111,0.0697,0.0521,0.0336,0.0343,0.0304,0.0318,0.0334,0.0315,0.0234,0.0139,0.014,0.014,0.014,0.014,0,0.0166,0.0243,0.0367,0.0544,0.0679,0.0745,0.095,0.1022,0.1145,0.1217,0.1234,0.1028,0.0833,0.0657,0.0338,0.0154,0.0213,0.0122,0.0267,0.0286,0.0305,0.0292,0.0106,0.0106,0.0106,0.0106,0,0,0.0193,0.0331,0.0424,0.0622,0.0729,0.0871,0.097,0.1028,0.1085,0.1081,0.1046,0.1006,0.0827,0.0606,0.0404,0.0251,0.0308,0.0217,0.0252,0.0463,0.0484,0.0404,0.0402,0,0,0,0,0]}],[{"header":{"parameterUnit":"m.s-1","parameterCategory":2,"la1":30.2991,"la2":30.254,"lo1":-89.0895,"lo2":-89.0444,"dy":0.0017,"dx":0.0017,"nx":28,"ny":28,"refTime":"2025-08-03T09:00:00:Z","depth":"4","parameterNumber":2,"parameterNumberName":"U-component_of_CURRENTS"},"data":[0,0,0,0,0,0,0,0,0,0,0,0,0,0,0,0,0,0,0,0,0,0,0,0,0,0,0,0,0,0,0,0,0,0,0,0,0,0,0,0,0,0,0,0,0,0,0,0,0,0,0,0,0,0,0,0,0,0,0.0299,0.03,0,0.0394,0.0395,0.0397,0.0457,0.0457,0.0457,0.0458,0.037,0.0368,0.0365,0,0,0,0,0,0,0,0,0,0,0,0,0,0.0268,0.0267,0.0299,0.03,0.0301,0.0394,0.0395,0.0397,0.0457,0.0457,0.0458,0.0458,0.0371,0.0368,0.0365,0,0,0,0,0,0,0,0,0,0,0,0,0,0.0315,0.0267,0.0299,0.0341,0.0346,0.0394,0.0396,0.0397,0.0457,0.0457,0.0458,0.0458,0.0372,0.0368,0.0364,0.0335,0,0,0.0353,0.0351,0,0,0,0,0,0,0,0,0.0312,0.0316,0.0334,0.0339,0.0344,0.0413,0.0352,0.0367,0.0457,0.0416,0.0458,0.0458,0.0366,0.0363,0.0385,0.033,0.0327,0.0353,0.035,0.0349,0.0348,0,0,0,0,0,0,0,0.0309,0.0313,0.0339,0.0335,0.0341,0.0389,0.0395,0.0357,0.0386,0.042,0.0424,0.0432,0.0368,0.0389,0.0383,0.0325,0.0353,0.0349,0.0347,0.0345,0.0278,0.0279,0,0,0,0,0,0,0.0288,0.0309,0.0335,0.0341,0.0327,0.0389,0.0396,0.0392,0.0391,0.0392,0.0432,0.0435,0.0395,0.0387,0.0379,0.0372,0.0349,0.0345,0.0343,0.0278,0.0278,0.0279,0,0,0,0,0,0,0.0287,0.0289,0.0332,0.0327,0.0336,0.0388,0.0383,0.0393,0.0427,0.0401,0.04,0.0457,0.0395,0.0385,0.037,0.0367,0.0343,0.034,0.0277,0.0278,0.0278,0.0337,0,0,0,0,0,0,0.0285,0.0288,0.0287,0.0325,0.0335,0.0344,0.0383,0.0395,0.043,0.0435,0.0421,0.0414,0.0394,0.0376,0.0366,0.0361,0.0337,0.0276,0.0277,0.0278,0.0334,0.0339,0.0344,0,0,0,0,0,0.0284,0.0272,0.0286,0.029,0.0328,0.0343,0.0352,0.0393,0.0431,0.043,0.0448,0.0415,0.0374,0.0374,0.0362,0.0356,0.0276,0.0277,0.0278,0.0332,0.0338,0.0344,0,0,0,0,0,0,0.025,0.0278,0.0294,0.029,0.0309,0.0352,0.0361,0.04,0.0421,0.0427,0.0422,0.0414,0.0397,0.0371,0.0371,0.0341,0.0318,0.0317,0.0363,0.0368,0.0373,0.0395,0.0334,0,0,0,0,0,0.0242,0.0245,0.0273,0.0268,0.0276,0.0325,0.0344,0.0369,0.0391,0.0404,0.0411,0.0406,0.0391,0.0378,0.0354,0.0335,0.0314,0.0323,0.0328,0.0332,0.0343,0.036,0.0368,0.0282,0.0282,0.0282,0,0,0.0227,0.0244,0.0245,0.0262,0.0285,0.0282,0.0337,0.0353,0.0372,0.0383,0.0412,0.0415,0.039,0.0381,0.0369,0.0358,0.0333,0.0334,0.0338,0.0346,0.0362,0.037,0.0378,0.0283,0.0283,0.0283,0,0,0.0187,0.021,0.0196,0.0207,0.0232,0.0259,0.0264,0.0314,0.0358,0.038,0.0401,0.0422,0.0394,0.04,0.0391,0.0405,0.0358,0.0384,0.0425,0.0441,0.0449,0.0455,0.0387,0.0388,0.0388,0.0388,0.0388,0,0.0181,0.0157,0.0193,0.0178,0.0197,0.0245,0.0239,0.0276,0.0325,0.0379,0.0382,0.0438,0.0407,0.0432,0.044,0.0415,0.0395,0.0406,0.0449,0.0456,0.0462,0.0391,0.0391,0.0391,0.0391,0.039,0.039,0,0.0116,0.0111,0.0102,0.0104,0.0126,0.0125,0.0176,0.022,0.0287,0.0348,0.0421,0.0432,0.0481,0.0461,0.0449,0.0482,0.0441,0.0454,0.0439,0.0474,0.0396,0.0394,0.0395,0.0394,0.0393,0.0393,0,0,0.009,0.0066,0.0065,0.0083,0.0097,0.0124,0.0149,0.0221,0.0297,0.0353,0.0461,0.0462,0.0534,0.053,0.0539,0.0545,0.054,0.0522,0.0521,0.0459,0.0521,0.0524,0.0521,0.0576,0.0578,0.0579,0.0431,0,0.0044,0.0003,0.0011,0.0015,0.0019,0.0083,0.0128,0.0206,0.0291,0.04,0.0468,0.0545,0.054,0.0587,0.0602,0.057,0.0548,0.0575,0.0492,0.0487,0.0494,0.0526,0.0583,0.043,0.0429,0.0429,0.0429,0,-0.0007,-0.0017,-0.0041,0.0032,0.0047,0.0071,0.0205,0.0256,0.0392,0.0463,0.0569,0.0631,0.0677,0.0669,0.0643,0.0667,0.0599,0.0554,0.0548,0.0539,0.0492,0.0399,0.0426,0.0426,0.0426,0.0426,0.0426,0,-0.0013,-0.0022,-0.0028,-0.0021,0.0037,0.0099,0.0172,0.03,0.0382,0.0528,0.0591,0.0682,0.0736,0.0703,0.062,0.0644,0.0551,0.0572,0.0492,0.0486,0.0498,0.0493,0.0535,0.0535,0.0535,0.0536,0.0536,0,-0.0041,-0.0035,-0.0016,-0.0012,0.0071,0.0132,0.0263,0.0343,0.0468,0.0572,0.0654,0.0724,0.0756,0.072,0.0631,0.0549,0.0558,0.0502,0.0475,0.0515,0.0514,0.0493,0.049,0.053,0.0531,0.0533,0.0534,0,-0.0046,-0.0068,-0.0043,0.0023,0.0065,0.0149,0.0304,0.0393,0.0496,0.0624,0.0667,0.0756,0.0746,0.069,0.0612,0.0565,0.0465,0.0408,0.0386,0.0358,0.0377,0.0379,0.0355,0.0355,0.0355,0.0354,0.0354,0,-0.007,-0.0069,-0.0004,0.0034,0.0073,0.0199,0.0285,0.0407,0.0491,0.0633,0.0681,0.0726,0.0771,0.0639,0.0588,0.0426,0.0407,0.0324,0.0436,0.0396,0.0371,0.0373,0.0375,0.0353,0.0353,0.0353,0.0353,0,-0.0079,-0.0054,-0.0021,0.0044,0.0127,0.0217,0.0351,0.0402,0.0546,0.0621,0.0713,0.0723,0.0715,0.0671,0.0534,0.0415,0.0387,0.032,0.0322,0.0427,0.0392,0.0369,0.0372,0.0351,0.0352,0.0352,0.0352,0,-0.0066,-0.004,-0.0003,0.0074,0.0144,0.0213,0.0299,0.0411,0.0498,0.0656,0.0677,0.0701,0.0752,0.0658,0.0518,0.0433,0.0453,0.0422,0.0419,0.042,0.0511,0.048,0.0453,0,0,0,0,0,-0.0044,-0.0026,0.0024,0.0101,0.0167,0.0233,0.0317,0.0396,0.0524,0.059,0.0647,0.0644,0.0599,0.0584,0.0505,0.0493,0.0396,0.0394,0.0347,0.0343,0.0345,0.0447,0,0,0,0,0,0,-0.0048,-0.0007,0.0011,0.0088,0.0177,0.0262,0.0326,0.042,0.0469,0.0589,0.0558,0.0638,0.0566,0.0662,0.0519,0.0501,0.0459,0.0397,0.0395,0.0342,0.0344,0.0345,0.0451,0,0,0,0,0]},{"header":{"parameterUnit":"m.s-1","parameterCategory":2,"la1":30.2991,"la2":30.254,"lo1":-89.0895,"lo2":-89.0444,"dy":0.0017,"dx":0.0017,"nx":28,"ny":28,"refTime":"2025-08-03T09:00:00:Z","depth":"4","parameterNumber":3,"parameterNumberName":"V-component_of_CURRENTS"},"data":[0,0,0,0,0,0,0,0,0,0,0,0,0,0,0,0,0,0,0,0,0,0,0,0,0,0,0,0,0,0,0,0,0,0,0,0,0,0,0,0,0,0,0,0,0,0,0,0,0,0,0,0,0,0,0,0,0,0,0.0058,0.0058,0,0.0053,0.0053,0.0053,0.0071,0.0071,0.0072,0.0072,0.0112,0.0113,0.0113,0,0,0,0,0,0,0,0,0,0,0,0,0,0.0066,0.0066,0.0058,0.0058,0.0058,0.0053,0.0053,0.0053,0.0071,0.0071,0.0072,0.0072,0.0112,0.0113,0.0113,0,0,0,0,0,0,0,0,0,0,0,0,0,0.0063,0.0066,0.0058,0.0065,0.0066,0.0053,0.0053,0.0053,0.0071,0.0071,0.0072,0.0073,0.0112,0.0112,0.0113,0.0107,0,0,0.0117,0.0117,0,0,0,0,0,0,0,0,0.0063,0.0063,0.0064,0.0065,0.0065,0.0062,0.0071,0.0073,0.0071,0.007,0.0072,0.0073,0.0098,0.01,0.0099,0.0109,0.0111,0.0117,0.0117,0.0118,0.0118,0,0,0,0,0,0,0,0.0064,0.0063,0.0057,0.0064,0.0065,0.0063,0.0063,0.0071,0.0083,0.007,0.0071,0.0068,0.0099,0.0098,0.01,0.0111,0.0117,0.0117,0.0118,0.0119,0.0114,0.0113,0,0,0,0,0,0,0.0062,0.0064,0.0058,0.0057,0.0064,0.0062,0.0063,0.0064,0.0081,0.0084,0.0068,0.0069,0.0096,0.0099,0.0102,0.0115,0.0118,0.0119,0.0119,0.0115,0.0114,0.0113,0,0,0,0,0,0,0.0062,0.0062,0.0058,0.0059,0.0058,0.0061,0.0062,0.0063,0.0063,0.0079,0.0083,0.0067,0.0097,0.01,0.0111,0.0116,0.0119,0.012,0.0115,0.0114,0.0113,0.0129,0,0,0,0,0,0,0.0063,0.0062,0.0059,0.0059,0.0058,0.0064,0.0061,0.0063,0.006,0.0062,0.0079,0.0084,0.0097,0.011,0.0112,0.0117,0.0121,0.0116,0.0115,0.0114,0.0129,0.0128,0.0128,0,0,0,0,0,0.0063,0.0069,0.0059,0.0058,0.0055,0.0064,0.0065,0.0069,0.0059,0.0069,0.0071,0.0083,0.0102,0.011,0.0113,0.0119,0.0117,0.0115,0.0114,0.013,0.0129,0.0128,0,0,0,0,0,0,0.0078,0.007,0.006,0.0064,0.0066,0.0067,0.0076,0.0065,0.0071,0.0076,0.008,0.0085,0.0093,0.0097,0.0105,0.0109,0.0109,0.0108,0.012,0.0119,0.0118,0.012,0.0122,0,0,0,0,0,0.0075,0.0074,0.0069,0.0072,0.0076,0.0069,0.0069,0.0073,0.0077,0.008,0.0084,0.0086,0.0086,0.0097,0.01,0.0109,0.0076,0.0109,0.0108,0.0108,0.0109,0.0031,0.0023,0.0108,0.0108,0.0108,0,0,0.0084,0.0076,0.0078,0.0074,0.0077,0.0096,0.0073,0.0085,0.0099,0.0084,0.0103,0.0084,0.0084,0.0094,0.0097,0.0103,0.007,0.0106,0.0106,0.0107,0.0029,0.002,0.0013,0.0107,0.0107,0.0107,0,0,0.0113,0.0095,0.0111,0.0114,0.0116,0.0115,0.0116,0.0116,0.0117,0.0127,0.0108,0.008,0.0105,0.0086,0.0084,0.0075,0.0062,0.0085,0.0096,0.002,0.0013,0.0005,-0.003,-0.0041,0.0092,0.0092,0.0092,0,0.0123,0.0137,0.0118,0.0138,0.0144,0.0125,0.0151,0.0153,0.0152,0.0138,0.0144,0.0101,0.0097,0.0073,0.0077,0.0073,0.0046,0.0105,0.0019,0.0011,0.0004,-0.0032,-0.0043,0.0093,0.0093,0.0093,0.0093,0,0.0169,0.0178,0.0192,0.0206,0.021,0.023,0.0228,0.0223,0.0211,0.0195,0.0161,0.0133,0.0108,0.0092,0.0095,0.0038,0.0042,0.0021,0.0024,-0.0004,-0.0039,-0.0051,0.0094,0.0094,0.0093,0.0093,0,0,0.0195,0.022,0.0224,0.0235,0.0246,0.0254,0.0269,0.0261,0.0249,0.0229,0.0197,0.0169,0.0129,0.0121,0.0091,0.0024,-0.005,0.0015,0.001,-0.0015,-0.0185,-0.0117,-0.0124,-0.0082,-0.0085,-0.0087,-0.0182,0,0.0236,0.028,0.0282,0.0322,0.0341,0.0323,0.0334,0.0318,0.0295,0.0261,0.0194,0.0172,0.0153,0.0137,0.0065,-0.004,-0.0084,-0.002,-0.0159,-0.0162,-0.0096,-0.0138,-0.0095,-0.0191,-0.0194,-0.0196,-0.0198,0,0.0284,0.0295,0.035,0.0358,0.0365,0.0397,0.0378,0.0391,0.0335,0.0303,0.0248,0.0208,0.0115,0.0105,-0.0071,-0.0025,-0.0084,-0.0163,-0.0169,-0.012,-0.0119,-0.0164,-0.0221,-0.0219,-0.0217,-0.0216,-0.0214,0,0.0303,0.0341,0.0381,0.0391,0.0405,0.0424,0.044,0.0407,0.0392,0.0343,0.0305,0.0201,0.0156,0.0024,-0.01,-0.0089,-0.0299,-0.0309,-0.0298,-0.0293,-0.0331,-0.0323,-0.041,-0.041,-0.041,-0.041,-0.0409,0,0.0338,0.0361,0.0403,0.0423,0.0455,0.0465,0.0496,0.0471,0.0432,0.0406,0.0348,0.0287,0.0134,0.0012,-0.0111,-0.0242,-0.0302,-0.0302,-0.0323,-0.0319,-0.0308,-0.0339,-0.0329,-0.0413,-0.0413,-0.0412,-0.0411,0,0.0345,0.0381,0.0415,0.0451,0.0474,0.0502,0.0544,0.054,0.0511,0.047,0.0458,0.0336,0.0188,0.0037,-0.0175,-0.0229,-0.0387,-0.0398,-0.0362,-0.0379,-0.0323,-0.0311,-0.0414,-0.0412,-0.0411,-0.041,-0.0409,0,0.0349,0.0376,0.0438,0.0473,0.0504,0.0561,0.0588,0.058,0.0569,0.0489,0.0449,0.0338,0.0256,-0.0002,-0.0158,-0.0364,-0.0366,-0.0411,-0.0382,-0.0318,-0.0328,-0.0319,-0.0309,-0.0407,-0.0407,-0.0407,-0.0406,0,0.033,0.0368,0.0395,0.0476,0.0531,0.058,0.0628,0.0609,0.0589,0.0556,0.0455,0.0351,0.0207,0.0021,-0.0102,-0.0262,-0.0387,-0.0399,-0.0402,-0.0375,-0.0311,-0.0321,-0.0313,-0.0402,-0.0403,-0.0403,-0.0404,0,0.0314,0.0325,0.039,0.0453,0.0522,0.0574,0.061,0.0609,0.0594,0.0513,0.0479,0.0324,0.0246,0.0073,-0.0087,-0.0195,-0.0214,-0.0225,-0.0237,-0.0244,-0.0156,-0.0047,-0.0083,0,0,0,0,0,0.0309,0.0322,0.0364,0.0447,0.0522,0.058,0.0605,0.0628,0.0608,0.055,0.0522,0.039,0.0206,0.0099,0.0002,-0.0074,-0.0245,-0.0188,-0.0267,-0.038,-0.0384,-0.0303,0,0,0,0,0,0,0.0286,0.0338,0.0342,0.0426,0.0501,0.0586,0.0609,0.0611,0.0582,0.0548,0.0435,0.0412,0.0205,0.0271,0.0015,-0.0022,-0.0073,-0.0277,-0.0278,-0.0377,-0.0381,-0.0385,-0.0303,0,0,0,0,0]}]]